Location: Lane
(33.5226°N, 79.8788°W)
Time: 12:56:25
(UTC+00:00)

Explorer 7 - Pass Details

Date: 05 October 2022
Orbit: 481 x 665 km, 50.3° (Epoch: 26 November)

Event Time Altitude Azimuth Distance (km) Brightness Sun altitude
Rises 19:44:33 0° 320° (NW) 2,959 10.6 36.6°
Reaches altitude 10° 19:47:42 10° 341° (NNW) 2,018 9.6 36.1°
Maximum altitude 19:50:43 17° 21° (NNE) 1,583 8.9 35.6°
Drops below altitude 10° 19:53:38 10° 62° (ENE) 1,945 9.2 35.1°
Sets 19:56:35 0° 84° (E) 2,804 10.0 34.6°
